This demonstration page uses our WeatherBlox Daily Observations layout. Learn more.

Left ArrowRight Arrow

44.8408, -93.29828

Hourly Observations for September 2, 2022

Temp ( °F °C ) Dew Point ( °F °C ) Humidity (%) Winds ( mph kmh ) Pressure ( in mb ) Visibility ( mi km ) Precip ( " mm )
12:53 am 00:53 Clear 77 25 66 18.9 69 69 SW 12 19 29.81 1010 10 16 0.00 0.00
1:53 am 01:53 Clear 77 25 62 16.7 60 60 SW 13 20 29.81 1010 10 16 0.00 0.00
2:53 am 02:53 Clear 76 24.4 60 15.6 58 58 SW 12 19 29.81 1009 10 16 0.00 0.00
3:53 am 03:53 Clear 74 23.3 60 15.6 62 62 SW 10 17 29.82 1010 10 16 0.00 0.00
4:53 am 04:53 Clear 73 22.8 60 15.6 64 64 SSW 8 13 29.82 1010 10 16 0.00 0.00
5:53 am 05:53 Mostly Clear 72 22.2 60 15.6 66 66 SW 10 17 29.83 1010 10 16 0.00 0.00
6:53 am 06:53 Mostly Sunny 71 21.7 59 15 66 66 SSW 13 20 29.85 1011 10 16 0.00 0.00
7:53 am 07:53 Partly Cloudy 73 22.8 60 15.6 64 64 SSW 9 15 29.86 1011 10 16 0.00 0.00
8:53 am 08:53 Partly Cloudy 76 24.4 61 16.1 60 60 S 12 19 29.84 1011 10 16 0.00 0.00
9:53 am 09:53 Mostly Cloudy 77 25 62 16.7 60 60 S 12 19 29.85 1011 10 16 0.00 0.00
10:53 am 10:53 Partly Cloudy 81 27.2 63 17.2 54 54 SSW 15 24 29.82 1010 10 16 0.00 0.00
11:53 am 11:53 Partly Cloudy 82 27.8 65 18.3 56 56 SW 8 13 29.85 1011 10 16 0.00 0.00
12:53 pm 12:53 Partly Cloudy 84 28.9 65 18.3 53 53 WSW 10 17 29.85 1011 10 16 0.00 0.00
1:53 pm 13:53 Partly Cloudy 86 30 67 19.4 53 53 SW 9 15 29.84 1011 10 16 0.00 0.00
2:53 pm 14:53 Mostly Sunny 86 30 68 20 55 55 SW 8 13 29.85 1011 10 16 0.00 0.00
3:53 pm 15:53 Partly Cloudy 88 31.1 68 20 52 52 WSW 9 15 29.83 1010 10 16 0.00 0.00
4:53 pm 16:53 Partly Cloudy 86 30 67 19.4 53 53 W 10 17 29.85 1011 10 16 0.00 0.00
5:53 pm 17:53 Mostly Sunny 85 29.4 67 19.4 55 55 WNW 9 15 29.87 1011 10 16 0.00 0.00
6:53 pm 18:53 Mostly Cloudy 83 28.3 67 19.4 59 59 WNW 8 13 29.87 1012 10 16 0.00 0.00
7:53 pm 19:53 Mostly Cloudy 82 27.8 63 17.2 53 53 NW 18 30 29.89 1012 10 16 0.00 0.00
8:53 pm 20:53 Mostly Cloudy 78 25.6 60 15.6 54 54 N 16 26 29.94 1014 10 16 0.00 0.00
9:53 pm 21:53 Cloudy 75 23.9 53 11.7 46 46 N 17 28 29.98 1015 10 16 0.00 0.00
10:53 pm 22:53 Partly Cloudy 71 21.7 52 11.1 51 51 N 14 22 30.02 1017 10 16 0.00 0.00
11:53 pm 23:53 Mostly Cloudy 70 21.1 51 10.6 51 51 N 14 22 30.06 1018 10 16 0.00 0.00

Powered by AerisWeather